Regional Weather Roundup
Issued by NWS

Home | Current Version | Previous Version | Text Only | Print | Product List | Glossary Off
Versions: 1 2 3 4 5 6 7 8 9 10 11 12 13 14 15 16 17 18 19 20 21 22 23 24 25 26 27 28 29 30 31 32 33 34 35 36 37 38 39 40 41 42 43 44 45 46 47 48 49 50

000
ASUS43 KMKX 230821
RWRWI

WISCONSIN REGIONAL WEATHER ROUNDUP
NATIONAL WEATHER SERVICE MILWAUKEE/SULLIVAN WI
300 AM CDT TUE MAY 23 2017

NOTE: "FAIR" INDICATES FEW OR NO CLOUDS BELOW 12,000 FEET WITH NO
SIGNIFICANT WEATHER AND/OR OBSTRUCTIONS TO VISIBILITY.

WIZ001-002-006>008-014>016-023>028-230900-
NORTHWEST WISCONSIN

CITY           SKY/WX    TMP DP  RH WIND       PRES   REMARKS
SUPERIOR ARPT  NOT AVBL
ASHLAND        CLOUDY    45  44  97 CALM      29.81F
HAYWARD        CLOUDY    41  39  93 CALM      29.81S
SIREN          CLOUDY    42  41  97 CALM      29.81F
CUMBERLAND     CLOUDY    45  43  93 CALM      29.81S
RICE LAKE      CLOUDY    47  46  93 CALM      29.82F
CHETEK         LGT RAIN  48  48  98 CALM      29.80S
LADYSMITH      CLOUDY    45  44  96 CALM      29.81F
EAU CLAIRE     CLOUDY    51  48  89 N5        29.78F
MENOMONIE      DRIZZLE   50  48  93 NW5       29.80F
NEW RICHMOND   LGT RAIN  49  47  95 CALM      29.81F
OSCEOLA        LGT RAIN  49  49 100 SE3       29.84S
$$

WIZ003>005-009-010-017-018-230900-
NORTH CENTRAL WISCONSIN

CITY           SKY/WX    TMP DP  RH WIND       PRES   REMARKS
MANITOWISH WTR FOG       38  38 100 CALM      29.81S VSB 3/4
ARBOR VITAE    CLOUDY    42  40  96 CALM      29.80F
WOODRUFF       CLOUDY    42  40  96 CALM      29.80F
RHINELANDER    CLOUDY    43  41  93 CALM      29.82S
EAGLE RIVER    CLOUDY    40  40 100 CALM      29.81F
LAND O LAKES   CLOUDY    41  41 100 CALM      29.83S
PHILLIPS       CLOUDY    38  38 100 CALM      29.80S
TOMAHAWK       CLOUDY    41  40  97 CALM      29.81F
MEDFORD        DRIZZLE   47  43  86 SE5       29.79F
MERRILL        DRIZZLE   45  44  99 CALM      29.81F
$$

WIZ029-030-035-036-043>047-230900-
CENTRAL WISCONSIN

CITY           SKY/WX    TMP DP  RH WIND       PRES   REMARKS
WAUSAU         LGT RAIN  48  43  82 CALM      29.79F
MOSINEE        LGT RAIN  46  45  93 CALM      29.81F
MARSHFIELD     LGT RAIN  49  45  86 E5        29.78F
STEVENS POINT  RAIN      48  48 100 CALM      29.81F
WAUPACA        LGT RAIN  55  46  73 E7        29.78F
WAUTOMA        CLOUDY    52  52 100 N3        29.76F
WISC RAPIDS    LGT RAIN  51  49  92 E10       29.78F
CAMP DOUGLAS   FOG       48  48 100 CALM      29.75F VSB 3/4
$$

WIZ011>013-019>022-031-037>040-048>050-230900-
NORTHEAST WISCONSIN

CITY           SKY/WX    TMP DP  RH WIND       PRES   REMARKS
ANTIGO         CLOUDY    46  44  93 E3        29.81F
SHAWANO        MOCLDY    52  46  81 E3        29.81F
OCONTO         PTCLDY    42  41  99 CALM      29.81F
STURGEON BAY   PTCLDY    47  44  90 E6        29.82F
GREEN BAY      CLOUDY    50  46  86 E5        29.80F
MANITOWOC      CLOUDY    50  45  83 CALM      29.81F
APPLETON       CLOUDY    54  39  58 E7G16     29.77F
CLINTONVILLE   MOCLDY    50  45  81 E3        29.80F
OSHKOSH        CLOUDY    56  53  90 SE5       29.77F
$$

WIZ032>034-041-042-053>061-230900-
SOUTHWEST WISCONSIN

CITY           SKY/WX    TMP DP  RH WIND       PRES   REMARKS
LA CROSSE      CLOUDY    54  53  97 CALM      29.76F FOG
SPARTA         FOG       47  47 100 CALM      29.77F VSB 1/4
VIROQUA        CLOUDY    51  51 100 MISG      29.77F VSB 1/4
BOSCOBEL       MOCLDY    52  51  97 CALM      29.77S FOG
PRAIRIE DU CHI PTCLDY    51  49  96 E3        29.76F FOG
PLATTEVILLE    PTCLDY    55  55 100 S9        29.77F
$$

WIZ056-057-062-063-064-067-068-230900-
SOUTH CENTRAL WISCONSIN

CITY           SKY/WX    TMP DP  RH WIND       PRES   REMARKS
REEDSBURG      CLOUDY    54  54 100 CALM      29.76F
BARABOO/DELLS  CLOUDY    53  51  94 CALM      29.75F
LONE ROCK      CLOUDY    53  51  93 CALM      29.76F FOG
MINERAL POINT  CLOUDY    54  54 100 S5        29.76F
MADISON        PTCLDY    55  54  96 S7        29.76F
MIDDLETON      PTCLDY    55  55  99 SE6       29.77F
WATERTOWN      CLOUDY    56  56 100 S6        29.78F
MONROE         MOCLDY    54  54 100 S9        29.78F
JANESVILLE     CLOUDY    57  55  94 S7        29.78F
$$

WIZ051-052-058>065-066-070>072-230900-
SOUTHEAST WISCONSIN

CITY           SKY/WX    TMP DP  RH WIND       PRES   REMARKS
MILWAUKEE      CLOUDY    59  55  87 SW7       29.80F
WAUKESHA       CLOUDY    54  52  94 SW5       29.81S
MILWAUKEE/TIMM   N/A     55  52  88 SW3       29.81F
RACINE         CLOUDY    58  53  84 SW8       29.82F
KENOSHA        CLOUDY    58  53  84 SW7       29.81F
FOND DU LAC    CLOUDY    57  53  86 CALM      29.78F
SHEBOYGAN      CLOUDY    54  52  93 NE5       29.79F
WEST BEND      CLOUDY    55  54  94 SW6       29.79F
JUNEAU         MOCLDY    54  53  95 SE3       29.78F
$$

LSZ147-162-230900-
LAKE SUPERIOR

STATION/POSITION TIME  TEMP    WIND        PRES    WAVE
                       AIR SEA DIR/SP/G            HT/PER
                 (UTC) (F)     (DEG/KT/KT) (MB)    (FT/S)
W MID LAKE BUOY  0750   40 37  240/  4/  4 1010.2F   1
DEVILS ISLAND    0800   46     330/  6/  7 1009.9F
PORT WING        0740   45      CALM  /  1 1009.8F
SAXON HARBOR     0730   48     190/  3/  5 1009.1F
$$

LMZ867-665-643>646-230900-
LAKE MICHIGAN

STATION/POSITION TIME  TEMP    WIND        PRES    WAVE
                       AIR SEA DIR/SP/G            HT/PER
                 (UTC) (F)     (DEG/KT/KT) (MB)    (FT/S)
CHAMBERS ISLAND  0740   42        CALM     1009.8F
N MID LAKE BUOY  0750   43 39  250/  4/  4 1011.2F   2/ 5
NORTHPORT PIER   0740   44      CALM  /  2 1010.2F
SISTER BAY       0721   45        CALM       N/A
KEWAUNEE LAKESHO 0754   50      40/  4/  5 1009.2F
SHEBOYGAN LAKESH 0800   51     350/  7/  8 1008.6F
PORT WASHINGTON  0740   51     200/  4/  7 1009.8F
ATWATER BUOY     0709   52     180/  6/  8 1009.6F
MILWAUKEE LAKESH 0800   58     220/ 10/ 11   N/A
S MID LAKE BUOY  0750   49 45  200/  8/ 10 1010.5F   1/ 4
KENOSHA   LAKESH 0800   59     210/  5/  8 1009.5
$$

TC  - TEMPERATURE IN CELSIUS
VSB - VISIBILITY IN STATUTE MILES
WCI - WIND CHILL INDEX
HX  - HEAT INDEX





USA.gov is the U.S. government's official web portal to all federal, state and local government web resources and services.